Dewpoint
-14 -14 -14 -13 -13 -13 -13 -14 -9 -5 -1 0 -3 -7 -12 -13 -14 -15 -16 -18 -15 -15 -14 -14 -16 -15 -12 -8 -12 -15 -15 -15 -14 -14 -13 -8 -7 -7 -7 -6 -6 -4 -5 -5 -5 -5 -6
-13 -14 -15 -15 -15 -15 -15 -15 -15 -13 -7 -2 0 -3 -7 -12 -14 -14 -16 -15 -16 -12 -12 -12 -13 -12 -9 -4 -10 -13 -14 -12 -12 -14 -11 -7 -7 -8 -6 -6 -7 -5 -5 -4 -5 -5 -5
-14 -13 -13 -15 -16 -15 -16 -16 -16 -16 -16 -9 -4 -0 -4 -9 -14 -14 -16 -16 -14 -13 -12 -9 -8 -7 -7 -7 -9 -11 -12 -12 -10 -11 -7 -7 -6 -7 -6 -5 -4 -4 -4 -6 -5 -5 -7
-13 -14 -13 -13 -14 -15 -16 -16 -17 -18 -17 -17 -12 -5 -1 -7 -11 -15 -15 -14 -11 -15 -12 -12 -10 -7 -7 -9 -10 -10 -9 -11 -10 -8 -6 -5 -6 -7 -6 -4 -5 -4 -4 -5 -7 -6 -6
0 -6 -12 -13 -13 -13 -14 -15 -15 -17 -18 -18 -18 -13 -5 -2 -7 -14 -14 -13 -13 -16 -12 -11 -11 -9 -4 -7 -8 -9 -9 -9 -10 -7 -5 -6 -8 -5 -6 -5 -5 -5 -3 -3 -4 -6 -6
4 4 2 -4 -11 -12 -13 -14 -14 -15 -16 -18 -19 -19 -14 -3 -3 -9 -16 -13 -13 -13 -9 -9 -8 -6 -6 -6 -7 -8 -9 -9 -8 -6 -4 -3 -4 -4 -3 -4 -2 -4 -5 -4 -3 -5 -5
5 6 5 3 2 -2 -9 -10 -11 -12 -13 -15 -17 -19 -20 -13 -1 -7 -14 -15 -13 -7 -6 -11 -9 -7 -5 -6 -7 -7 -8 -7 -7 -4 -3 -2 -1 -1 -4 -4 -3 -4 -4 -4 -5 -5 -4
5 5 6 6 6 4 3 -1 -6 -9 -9 -11 -14 -17 -20 -20 -8 -5 -11 -11 -10 -6 -5 -7 -9 -6 -6 -7 -5 -5 -7 -6 -4 -3 -2 -2 -0 -3 -4 -4 -4 -4 -4 -4 -6 -5 -3
4 5 5 6 6 6 6 4 2 -1 -5 -8 -10 -13 -17 -19 -16 -4 -6 -8 -9 -8 -2 -4 -6 -6 -7 -6 -6 -6 -5 -3 -3 -2 -1 -1 -3 -3 -3 -4 -4 -5 -4 -5 -5 -4 -4
-3 3 4 4 5 6 6 7 6 3 2 -2 -6 -8 -12 -17 -11 -3 -3 -5 -7 -7 -4 -4 -5 -5 -6 -5 -5 -5 -4 -3 -3 -2 -1 -2 -3 -3 -3 -3 -4 -3 -5 -4 -3 -2 -1
1 1 2 4 4 3 5 6 7 7 5 3 0 -4 -8 -12 -16 -10 -4 -7 -7 -6 0 -4 -5 -5 -5 -4 -4 -3 -3 -2 -2 -2 -2 -2 -2 -3 -2 -2 -5 -3 -4 -3 -2 -1 -0
-3 -6 -1 1 2 2 3 4 5 6 6 6 5 0 -2 -8 -12 -12 -4 -7 -4 -1 -1 -1 -4 -3 -3 -3 -3 -3 -3 -3 -3 -2 -2 -1 -2 -3 -3 -3 -4 -3 -1 -1 -0 -0 3
-2 -3 -2 -0 0 1 1 2 4 5 6 6 7 4 0 -3 -9 -11 -5 -4 -0 1 -4 -2 -1 -2 -2 -1 -2 -2 -2 -1 0 1 1 -1 -1 -4 -4 -1 -3 -3 -2 3 2 3 4
-2 -2 -1 -0 0 0 0 1 2 3 4 6 6 6 2 -3 -6 -6 -5 -1 -1 -3 -3 -3 -2 -1 -0 -1 -1 -1 -1 -0 -2 0 2 2 3 -2 -3 -3 -0 -2 -2 3 2 2 1
-2 -3 -1 -2 -1 -0 1 -0 0 1 2 4 6 7 6 -1 -7 -2 -4 0 -1 -2 -3 -2 -2 0 1 -0 -1 -1 -1 -0 -2 -0 1 3 2 -4 -3 -3 -3 -2 -0 -3 -0 -1 1
-3 -3 -3 -2 -2 -2 -1 -0 -1 -1 1 3 4 5 6 4 -2 0 -1 -3 -3 -4 -2 -3 -1 -2 -0 1 0 -0 -0 -2 -1 -2 -3 0 2 -2 -2 -4 -4 -3 -4 -0 -0 2 3
-2 -4 -3 -4 -1 -2 -2 -2 -1 -0 1 2 3 5 5 -1 -1 1 2 -0 -4 -5 -3 -3 -2 -2 -2 1 0 0 -0 -2 -2 -2 -3 -2 -1 -0 -3 -1 -1 -1 -2 -2 -1 0 2
-3 -4 -4 -2 -4 -3 -2 -3 -1 -1 1 1 3 5 3 3 2 1 1 -1 -5 -2 -3 -2 -4 -3 -1 -0 1 0 0 -1 -3 -3 -1 -2 -0 1 0 -3 -4 -3 -2 -2 2 1 -0
-4 -4 -3 -4 -4 -5 -4 -3 -3 -2 -1 1 2 3 3 3 4 2 0 -0 -1 -1 -2 -2 -2 -2 -2 0 1 0 0 -3 -3 -2 -1 -2 1 3 3 0 -3 -2 -2 -3 -1 -2 0
-3 -3 -4 -5 -4 -5 -5 -4 -3 -2 -2 0 2 3 3 3 2 2 1 1 0 -2 -3 -2 -2 -2 -0 1 0 1 0 -3 -3 -2 -2 -1 1 2 2 2 -0 -0 -2 -2 -1 1 1
-3 -4 -4 -4 -4 -4 -3 -5 -3 -3 -2 -1 1 2 3 4 4 2 2 0 1 0 -1 -2 -1 -1 0 2 2 2 -1 -2 -3 -1 -1 -0 3 2 1 1 -1 -0 -0 -1 -1 -0 2
-3 -3 -3 -3 -3 -4 -4 -4 -5 -3 -4 -2 0 1 1 1 2 3 3 4 1 -1 -1 -0 -0 -1 -0 -1 0 2 -1 -2 -2 -2 -1 -1 3 1 3 2 2 3 2 -0 -1 -1 -1
-3 -3 -3 -3 -3 -3 -4 -5 -5 -5 -3 -1 -1 0 0 1 1 1 3 3 1 -0 -1 -3 -2 -1 0 -0 -1 -1 -2 -3 -3 -2 -1 0 2 3 4 1 2 3 2 2 2 -0 -1
-4 -3 -3 -3 -3 -3 -3 -4 -4 -4 -3 -2 -1 -1 -1 0 1 2 2 1 2 3 -0 -2 -2 -2 -1 -2 -1 -0 -2 -3 -3 -3 -3 0 2 2 2 2 6 1 -3 -1 1 1 -0
-3 -3 -3 -3 -2 -2 -3 -3 -3 -4 -4 -2 -2 -2 -1 -0 0 -0 -0 1 0 0 2 0 -1 -2 -2 -0 3 4 3 1 -1 -5 -3 -2 2 3 5 5 2 1 -2 -2 -0 -0 -1
-3 -2 -3 -3 -5 -4 -3 -3 -3 -3 -4 -3 -2 -2 -1 -1 -2 -1 -1 -0 2 2 2 0 -1 -2 -1 2 3 5 5 3 4 -1 -4 -1 1 3 4 6 5 -0 -4 -6 -5 0 -4
-2 -3 -2 -2 -2 -3 -3 -3 -3 -3 -3 -4 -3 -2 -2 -2 -2 -2 -0 -1 0 2 3 -0 -1 -0 1 3 4 5 4 2 4 3 1 2 2 5 5 6 3 -1 -7 -7 0 -2 -6
-2 -2 -2 -3 -2 -2 -2 -3 -3 -4 -4 -4 -3 -3 -2 -2 -1 -1 0 1 1 1 1 1 1 0 1 4 4 4 4 3 2 0 1 3 4 4 5 6 6 -6 -7 -1 -3 -7 -7
-3 -3 -2 -2 -3 -3 -3 -3 -3 -4 -3 -4 -3 -4 -2 -2 -1 -1 -1 -2 -0 -1 1 -0 2 1 1 3 2 2 3 1 1 3 -3 3 1 3 3 3 -3 -7 -5 -7 -5 -7 -7
Wind_Speed
16 16 16 17 17 17 17 17 16 17 17 17 14 10 7 5 6 6 6 5 5 4 3 4 5 6 6 5 8 6 5 5 6 8 8 8 6 4 4 4 3 3 4 3 5 6 5
17 18 18 17 17 18 18 18 18 16 16 17 17 13 9 6 6 6 6 6 5 5 4 4 4 5 6 5 6 5 5 4 5 8 9 9 5 6 8 3 2 4 5 5 4 5 5
17 17 17 17 18 18 19 19 18 19 18 16 17 17 13 6 7 7 7 7 7 6 5 4 5 4 8 10 6 5 5 4 4 7 9 9 7 5 8 4 6 9 4 1 3 3 3
15 16 17 18 18 17 18 19 20 19 19 19 17 17 16 9 7 6 7 8 9 6 6 6 7 6 7 7 8 5 5 4 3 6 7 8 9 8 4 12 4 4 4 2 2 5 1
18 17 16 17 18 18 19 19 19 20 20 19 19 18 16 15 10 7 7 9 9 8 8 8 8 7 6 7 8 7 7 6 6 8 8 10 6 5 7 5 3 4 3 4 3 8 3
21 22 20 18 18 19 18 18 20 20 21 21 20 19 19 16 13 9 7 10 11 10 10 9 10 5 9 6 7 8 8 10 6 9 7 4 3 4 3 3 5 6 4 4 4 4 4
21 21 22 23 23 20 20 20 18 19 20 22 22 21 19 19 16 9 7 6 6 6 14 9 5 5 3 8 7 7 9 11 8 6 4 2 3 6 10 6 3 4 4 4 3 2 3
19 21 21 22 22 24 24 21 21 20 19 20 21 21 20 19 17 10 6 4 5 4 9 18 19 17 11 8 6 9 10 10 7 5 5 4 6 5 6 4 4 3 4 5 2 1 1
18 18 19 21 23 23 24 26 24 23 21 20 20 21 20 18 17 8 6 8 8 6 4 7 16 10 8 12 6 11 12 8 4 5 6 6 3 8 5 3 4 4 5 4 4 2 2
19 19 21 21 21 22 24 24 25 25 26 23 20 20 20 18 10 11 9 6 5 4 3 5 6 6 10 7 3 9 12 6 2 10 7 5 5 6 4 5 6 4 3 4 3 3 4
24 23 21 22 24 24 24 25 27 24 26 28 24 20 18 15 15 11 9 5 3 4 3 2 4 6 9 7 9 4 9 5 6 6 6 5 8 5 4 4 6 4 3 3 2 3 3
25 27 25 22 24 27 27 26 27 30 29 26 27 23 23 15 15 12 5 5 5 5 7 3 5 6 5 4 4 7 4 4 5 4 3 2 1 3 3 3 3 6 5 6 4 3 1
29 26 23 23 24 26 27 28 28 27 26 28 27 24 24 20 13 10 5 8 4 4 2 6 6 5 4 6 4 6 6 5 6 5 5 1 3 2 4 5 3 3 4 2 4 2 5
30 27 28 24 23 25 27 29 31 29 27 25 28 27 25 24 17 13 12 3 6 5 7 2 4 4 7 8 4 5 6 5 5 4 3 7 5 8 5 4 7 6 6 5 6 3 4
29 29 28 28 27 27 26 28 29 31 31 29 26 26 30 24 18 18 15 4 9 8 4 8 2 3 5 5 6 4 7 6 10 12 9 6 4 2 2 2 3 5 5 3 6 3 3
28 29 30 28 28 28 28 28 26 29 31 30 33 27 30 26 20 20 4 13 7 6 7 5 9 7 8 6 7 8 9 5 6 10 2 6 3 1 1 2 2 3 5 3 2 3 5
31 29 30 28 30 29 29 29 28 26 28 29 29 8 13 12 21 16 7 8 8 12 9 8 8 5 7 7 8 5 5 3 5 6 3 5 3 0 2 8 9 4 3 2 2 4 5
32 33 30 31 31 33 30 28 28 27 26 25 17 4 7 20 7 7 14 8 10 5 10 6 3 7 9 8 8 7 10 6 14 14 10 7 5 5 7 1 3 3 6 7 4 5 1
30 31 32 31 30 33 32 29 26 25 24 25 10 13 16 27 6 8 4 7 12 7 8 8 9 8 5 9 4 8 7 0 18 10 10 9 3 3 1 1 2 5 6 4 5 3 7
29 28 29 31 31 31 31 30 27 24 23 24 9 3 5 20 21 6 14 14 12 15 14 9 6 5 4 6 5 5 7 0 9 7 5 10 4 7 9 4 6 6 7 8 6 4 5
34 33 33 30 29 29 28 31 27 25 22 23 9 4 6 2 7 14 15 7 20 14 10 18 4 8 8 7 4 6 2 3 1 6 4 4 7 4 4 3 4 5 6 12 16 16 10
37 36 35 33 31 28 28 30 27 24 22 24 9 6 6 7 15 14 15 21 26 13 10 6 8 10 11 17 14 10 7 5 6 4 6 3 3 4 3 3 6 5 8 11 18 18 19
39 38 36 35 34 31 29 30 24 26 20 18 19 17 12 6 7 7 5 13 21 11 11 23 18 11 8 14 5 2 6 5 4 11 10 7 7 4 4 3 2 5 19 17 14 7 15
41 40 38 36 35 34 31 29 26 26 21 23 25 24 6 9 7 7 8 17 18 17 23 9 10 10 10 16 11 8 11 10 6 5 3 7 7 3 3 2 6 5 2 5 18 14 12
39 39 37 37 37 35 33 30 28 25 23 25 26 22 10 5 9 14 18 13 23 27 25 26 22 21 16 13 4 1 1 0 3 3 2 2 5 3 5 6 7 7 5 7 8 8 18
41 41 39 36 35 37 35 32 30 28 25 25 29 24 23 6 9 27 13 12 6 6 11 8 10 22 21 4 3 10 8 6 7 2 2 0 3 2 3 5 7 6 4 7 4 6 7
45 43 41 39 38 35 34 34 32 30 28 26 31 26 24 11 25 26 11 12 5 5 5 4 6 9 12 5 4 5 7 4 6 10 7 4 1 11 7 5 6 6 8 11 4 7 5
45 44 42 40 39 36 34 33 32 31 29 27 33 29 25 24 31 26 22 18 12 10 5 7 3 3 3 6 7 5 5 8 4 5 7 11 10 5 3 5 14 9 7 9 4 4 11
43 40 40 39 37 37 35 33 31 31 28 26 35 30 28 27 29 26 27 34 38 45 16 8 10 11 10 5 3 3 3 3 6 6 1 5 7 6 10 7 1 31 6 18 8 9 14
Wind_Direction
20 18 13 13 13 13 14 12 14 14 15 17 13 360 342 320 289 264 254 247 237 248 251 267 252 239 241 253 254 264 253 232 218 213 206 196 191 157 146 134 98 101 175 155 160 166 168
14 12 10 8 8 6 5 6 4 6 5 6 8 3 342 319 295 273 255 235 239 229 262 270 236 242 240 246 249 255 242 230 222 207 199 196 219 200 126 108 142 132 128 127 166 163 175
4 5 5 3 0 0 360 359 359 356 357 359 358 358 355 324 301 275 254 242 219 223 250 261 222 259 259 256 255 241 217 214 217 203 200 200 187 164 136 105 115 125 94 21 208 185 184
6 359 356 355 354 352 353 354 351 351 350 349 351 350 350 331 310 276 260 236 207 246 250 258 257 256 255 240 233 224 201 190 170 175 178 178 169 133 110 122 65 74 63 142 233 162 186
0 358 352 349 347 347 346 346 347 345 344 343 342 342 344 342 317 282 255 219 227 261 251 250 255 243 262 222 218 216 202 183 159 150 153 148 148 103 126 99 35 5 215 207 292 203 138
342 344 346 345 341 338 339 340 339 341 340 338 337 336 334 335 326 297 255 231 251 261 257 244 237 253 231 224 207 206 195 181 160 155 141 165 119 84 45 104 208 200 218 227 229 227 178
330 331 331 331 333 334 332 331 332 334 335 334 333 333 331 329 329 307 263 252 252 251 226 224 210 223 199 212 209 205 189 178 163 168 161 106 103 207 210 190 153 143 187 215 223 177 199
318 316 316 319 321 322 325 325 323 325 328 330 329 329 329 329 324 306 269 243 251 262 293 241 247 240 240 220 207 207 188 175 173 177 129 44 229 202 127 157 157 161 171 239 283 134 179
312 313 312 308 310 313 315 315 317 318 320 322 326 326 326 329 322 296 292 266 265 287 265 251 224 226 214 205 216 199 188 182 149 143 180 167 205 143 139 159 159 202 182 193 208 329 248
306 309 317 314 310 300 303 309 309 310 314 317 319 322 325 328 309 304 303 285 258 240 26 254 212 213 192 184 231 193 191 182 122 187 160 221 152 160 162 192 150 217 169 120 110 66 240
332 327 315 323 314 310 303 293 296 304 306 309 312 314 317 321 304 297 294 286 183 154 11 208 179 172 172 183 143 167 183 186 169 165 136 231 165 165 173 213 175 208 102 97 91 96 12
327 317 320 313 317 317 316 309 295 288 293 301 303 308 307 317 296 283 278 192 147 51 246 201 156 177 143 196 176 140 158 149 118 109 50 102 148 179 184 75 67 139 76 52 55 86 320
334 326 313 312 303 313 311 313 315 306 293 288 297 296 299 297 283 269 208 160 53 169 284 202 195 173 182 182 190 175 166 170 162 127 205 83 206 157 146 94 51 92 89 319 338 12 229
333 331 328 315 310 303 306 311 308 314 306 294 285 289 284 282 267 241 184 66 194 228 233 52 137 111 189 160 217 171 145 201 224 116 119 165 276 170 178 191 176 179 167 169 219 207 264
330 335 331 324 312 311 310 300 309 309 311 310 282 286 281 276 266 214 193 196 201 200 177 153 54 171 218 209 170 157 204 213 196 179 181 157 257 75 69 133 135 189 191 161 106 61 47
331 329 328 322 322 310 310 309 304 307 310 317 321 300 273 273 254 204 222 229 217 212 141 147 200 172 196 190 171 180 182 211 204 186 127 199 119 293 158 127 49 167 158 85 7 187 247
324 324 328 322 320 320 313 310 310 308 312 314 323 273 271 242 194 191 225 220 224 238 182 168 205 204 214 185 185 208 211 266 177 143 127 141 115 181 130 207 175 145 190 93 134 162 182
316 319 319 321 313 311 316 318 311 311 312 317 314 259 252 191 173 187 227 186 192 208 222 247 228 197 187 185 191 213 216 239 167 147 164 191 125 171 195 227 168 174 185 163 148 210 187
312 311 314 313 313 314 310 314 318 312 314 315 285 272 273 195 215 219 270 243 224 171 186 198 220 201 181 188 213 203 204 233 170 163 165 181 195 114 6 345 325 207 196 148 114 93 200
312 311 315 314 310 311 311 308 312 314 312 313 275 271 247 211 237 266 232 231 236 227 225 180 197 145 151 207 246 229 216 139 195 193 187 146 169 182 203 174 131 189 188 176 154 160 161
305 304 303 304 314 307 306 307 307 310 311 312 273 262 248 277 246 256 270 254 227 232 220 208 199 201 170 202 195 214 152 93 16 192 137 177 207 161 229 160 157 183 171 186 204 210 193
304 304 302 302 300 307 302 304 305 308 309 306 276 270 321 309 296 275 262 239 248 243 168 214 186 203 203 222 203 198 141 184 194 178 168 218 180 127 253 196 209 233 225 209 219 230 242
299 299 297 298 299 297 303 304 306 306 307 297 293 286 270 261 285 285 276 260 264 255 254 237 217 195 204 236 235 342 192 186 189 168 184 163 136 145 254 135 167 275 237 200 220 208 219
293 294 294 295 292 294 292 299 298 300 286 288 288 296 245 277 260 252 263 290 297 287 258 238 204 192 202 212 131 81 61 70 80 22 156 156 145 140 162 126 252 245 191 192 220 239 210
294 291 293 291 291 288 290 288 293 293 288 289 289 291 265 254 275 273 271 274 282 297 289 250 231 226 191 144 99 107 276 138 216 16 334 332 144 159 171 204 318 286 206 170 179 264 221
291 288 287 284 289 286 285 287 285 288 291 281 284 279 276 264 251 257 263 268 274 305 289 240 209 203 172 128 146 200 212 183 206 188 11 18 13 156 158 206 228 242 173 162 141 285 218
289 286 284 283 279 282 282 281 282 282 284 278 277 275 276 265 269 255 256 267 236 252 272 313 187 184 172 158 182 172 220 163 180 170 169 152 188 212 200 230 272 224 159 151 137 244 165
289 284 282 280 278 277 275 279 279 282 279 278 280 271 273 276 266 255 256 234 235 234 262 295 220 241 105 189 192 187 173 204 158 164 175 174 168 188 193 216 252 143 104 187 197 127 165
288 284 279 278 277 275 273 277 275 279 277 276 279 277 271 273 260 257 257 271 262 250 223 252 282 302 186 174 189 128 170 139 154 217 207 209 190 178 190 211 148 176 208 199 181 170 177
Height
1562 1560 1558 1556 1554 1551 1548 1546 1542 1539 1536 1533 1529 1526 1523 1522 1522 1521 1520 1520 1520 1520 1520 1520 1519 1519 1519 1519 1516 1514 1514 1513 1513 1514 1514 1516 1517 1518 1521 1522 1523 1525 1527 1527 1528 1529 1530
1564 1562 1560 1557 1555 1553 1550 1547 1544 1541 1538 1535 1531 1527 1523 1521 1520 1520 1520 1519 1519 1519 1519 1519 1519 1519 1519 1519 1514 1513 1513 1513 1512 1513 1514 1515 1516 1518 1520 1522 1524 1525 1527 1528 1528 1529 1530
1564 1562 1560 1558 1556 1553 1551 1548 1545 1543 1539 1535 1532 1528 1524 1521 1519 1518 1518 1518 1517 1518 1518 1517 1517 1517 1516 1514 1512 1512 1512 1512 1512 1512 1513 1514 1515 1517 1519 1522 1524 1526 1529 1529 1528 1529 1529
1563 1561 1559 1557 1556 1554 1551 1548 1546 1543 1540 1536 1532 1529 1525 1521 1519 1517 1517 1517 1517 1517 1517 1517 1516 1516 1512 1510 1510 1510 1510 1511 1512 1512 1514 1514 1515 1516 1519 1522 1525 1529 1531 1534 1526 1526 1528
1563 1561 1559 1556 1554 1552 1550 1548 1545 1542 1539 1537 1533 1529 1525 1522 1519 1516 1515 1515 1516 1516 1515 1515 1515 1514 1511 1508 1507 1508 1509 1510 1511 1512 1513 1514 1515 1517 1521 1525 1533 1534 1536 1534 1527 1524 1526
1564 1562 1559 1555 1553 1551 1548 1545 1544 1541 1538 1535 1533 1529 1525 1521 1518 1516 1514 1514 1514 1514 1514 1514 1512 1515 1508 1506 1505 1505 1506 1508 1509 1511 1514 1515 1515 1520 1524 1527 1540 1532 1534 1530 1529 1525 1526
1562 1561 1558 1556 1553 1548 1546 1544 1540 1537 1535 1534 1531 1528 1525 1521 1518 1515 1514 1513 1516 1514 1510 1506 1504 1502 1502 1503 1504 1504 1504 1506 1508 1510 1513 1513 1520 1524 1520 1520 1519 1523 1526 1525 1523 1523 1525
1560 1557 1555 1553 1550 1548 1545 1542 1539 1535 1532 1529 1528 1525 1523 1520 1517 1513 1512 1511 1510 1511 1505 1500 1500 1500 1500 1500 1502 1502 1503 1505 1505 1510 1511 1517 1520 1514 1515 1518 1519 1520 1523 1525 1523 1523 1525
1556 1554 1551 1548 1545 1543 1542 1540 1537 1533 1530 1526 1523 1521 1520 1518 1515 1513 1509 1509 1508 1508 1506 1496 1493 1495 1497 1498 1498 1499 1501 1501 1503 1508 1510 1514 1510 1510 1513 1518 1521 1521 1523 1523 1523 1525 1526
1553 1550 1547 1544 1541 1539 1536 1535 1533 1530 1527 1523 1520 1517 1516 1514 1514 1510 1508 1506 1505 1507 1513 1495 1491 1490 1492 1495 1495 1495 1497 1500 1501 1506 1510 1509 1508 1511 1513 1515 1518 1521 1518 1520 1523 1527 1531
1550 1547 1543 1541 1538 1535 1532 1530 1528 1525 1524 1521 1518 1515 1511 1511 1510 1508 1507 1505 1505 1507 1538 1489 1488 1488 1489 1492 1492 1493 1495 1496 1499 1502 1507 1506 1510 1511 1513 1511 1514 1515 1519 1523 1526 1532 1534
1546 1543 1540 1538 1535 1532 1528 1525 1522 1520 1518 1516 1515 1513 1508 1507 1506 1505 1503 1503 1505 1519 1523 1486 1485 1486 1488 1489 1489 1491 1493 1495 1497 1501 1505 1506 1506 1507 1508 1512 1514 1520 1523 1529 1536 1539 1544
1543 1539 1536 1533 1531 1529 1526 1522 1518 1515 1512 1510 1508 1506 1506 1504 1503 1502 1501 1502 1516 1526 1482 1481 1482 1484 1485 1488 1488 1488 1491 1494 1498 1508 1508 1507 1506 1506 1507 1514 1517 1519 1525 1536 1538 1547 1524
1541 1537 1532 1529 1527 1524 1522 1519 1516 1512 1507 1503 1501 1498 1497 1498 1498 1500 1499 1502 1513 1488 1482 1476 1476 1480 1485 1482 1485 1487 1490 1492 1491 1492 1511 1508 1510 1504 1503 1504 1509 1518 1518 1530 1526 1536 1528
1539 1534 1530 1526 1523 1520 1517 1514 1512 1509 1504 1499 1493 1490 1487 1489 1491 1494 1495 1504 1489 1481 1469 1476 1479 1480 1482 1479 1480 1485 1489 1485 1477 1481 1488 1505 1497 1500 1501 1502 1504 1515 1518 1516 1530 1542 1548
1534 1530 1527 1524 1520 1517 1514 1510 1507 1504 1501 1497 1488 1481 1476 1482 1485 1490 1491 1474 1473 1465 1464 1469 1474 1471 1476 1478 1481 1483 1483 1468 1467 1469 1471 1481 1496 1501 1502 1502 1504 1505 1508 1520 1527 1522 1519
1531 1527 1524 1520 1517 1513 1510 1506 1503 1500 1497 1494 1486 1476 1470 1473 1477 1485 1480 1475 1464 1460 1460 1464 1464 1466 1469 1472 1472 1478 1470 1463 1461 1469 1471 1478 1482 1505 1502 1502 1500 1507 1508 1511 1513 1517 1520
1530 1525 1521 1516 1514 1510 1505 1502 1499 1497 1494 1490 1485 1473 1467 1466 1473 1466 1465 1459 1455 1455 1459 1458 1458 1456 1462 1464 1468 1470 1464 1458 1455 1459 1470 1473 1484 1504 1494 1491 1492 1492 1494 1498 1507 1508 1531
1527 1523 1518 1515 1510 1506 1503 1499 1495 1494 1494 1489 1480 1471 1465 1465 1460 1458 1454 1451 1449 1448 1449 1453 1453 1451 1451 1456 1461 1459 1456 1453 1452 1455 1459 1466 1479 1492 1487 1495 1493 1491 1491 1491 1499 1506 1516
1521 1518 1514 1511 1507 1503 1499 1496 1494 1492 1489 1487 1478 1468 1461 1457 1452 1450 1447 1443 1444 1440 1440 1438 1442 1446 1450 1452 1451 1451 1454 1453 1453 1454 1456 1458 1468 1462 1462 1461 1474 1484 1483 1484 1483 1505 1494
1516 1512 1509 1506 1502 1499 1496 1492 1490 1487 1487 1485 1477 1463 1459 1452 1451 1450 1447 1436 1433 1438 1438 1435 1438 1440 1442 1448 1450 1450 1453 1454 1456 1456 1455 1461 1462 1467 1466 1465 1467 1468 1471 1479 1475 1464 1473
1510 1506 1503 1500 1496 1494 1492 1488 1485 1485 1482 1479 1473 1465 1458 1454 1452 1448 1442 1436 1429 1424 1429 1429 1427 1432 1433 1431 1431 1441 1446 1449 1447 1455 1457 1459 1458 1465 1464 1466 1469 1469 1468 1467 1465 1459 1457
1501 1498 1495 1492 1490 1487 1484 1482 1480 1478 1477 1472 1469 1464 1459 1452 1449 1447 1440 1431 1425 1427 1420 1418 1419 1420 1430 1428 1431 1433 1435 1433 1435 1444 1453 1456 1459 1467 1464 1467 1468 1468 1445 1453 1445 1448 1444
1493 1490 1486 1484 1481 1479 1476 1475 1474 1473 1472 1468 1466 1463 1454 1447 1447 1442 1437 1435 1432 1427 1419 1415 1415 1417 1419 1426 1430 1432 1434 1438 1441 1443 1442 1449 1452 1459 1472 1467 1457 1429 1429 1430 1432 1428 1435
1482 1480 1477 1474 1472 1470 1468 1467 1466 1465 1463 1461 1459 1460 1452 1440 1441 1436 1431 1428 1426 1422 1417 1412 1409 1410 1414 1421 1430 1442 1440 1439 1442 1445 1444 1444 1445 1456 1454 1456 1438 1423 1431 1432 1434 1421 1418
1471 1469 1466 1464 1462 1461 1459 1457 1456 1455 1455 1454 1451 1452 1449 1439 1431 1431 1428 1427 1423 1419 1415 1405 1403 1405 1408 1415 1425 1426 1428 1432 1437 1443 1443 1443 1442 1439 1453 1442 1438 1420 1422 1423 1426 1429 1404
1460 1457 1455 1453 1451 1450 1449 1447 1447 1446 1445 1446 1442 1444 1442 1431 1421 1428 1422 1419 1415 1417 1413 1407 1401 1404 1398 1406 1416 1418 1417 1420 1425 1431 1441 1444 1445 1432 1433 1430 1421 1413 1416 1422 1426 1409 1402
1446 1443 1442 1441 1440 1439 1438 1438 1436 1435 1435 1436 1431 1434 1432 1428 1412 1415 1415 1415 1412 1412 1414 1409 1403 1394 1396 1402 1400 1407 1406 1413 1417 1419 1423 1419 1428 1429 1431 1428 1412 1406 1417 1417 1400 1398 1401
1431 1430 1429 1429 1428 1427 1427 1427 1426 1425 1426 1427 1422 1423 1421 1418 1405 1402 1402 1402 1398 1399 1403 1406 1401 1390 1378 1387 1393 1394 1398 1407 1405 1410 1417 1411 1401 1407 1406 1396 1394 1392 1391 1394 1395 1397 1400